sat.trackr.live / text

‹ back to catalog

STARLINK-3766

NORAD 52296 · 2022-041AM

PAYLOAD ACTIVE UNKNOWN

§ Identity

Operator
Country
US
Launch date
2022-04-21
Launch site
AFETR
Launch vehicle
Mass (kg)
RCS (m²)

Purposes: comms

External: N2YO · Heavens-Above · Gunter

§ Orbital elements

Epoch: 2026-09-19T15:23:01.669056Z

Period
93.85 min
Inclination
53.1585°
Eccentricity
0.0001266
Mean motion
15.34396249 rev/d
Perigee alt
461.8 km
Apogee alt
463.6 km
Semi-major
6,840.9 km
B*
-1.1569e-5
RAAN
295.3870°
Arg perigee
50.5855°
Mean anomaly
309.5259°
Rev number
24,396

§ Raw data

STARLINK-37661 52296U 22041AM  26262.64099154 -.00000767  00000+0 -11569-4 0  99962 52296  53.1585 295.3870 0001266  50.5855 309.5259 15.34396249243963

JSON: /api/v1/satellites/52296 · /tle

For live sub-satellite position, see the globe view (requires WebGL).

§ Visibility from observer

Set your observer location to see the next 7 days of passes ≥ 10°. The values pass through the URL so the page stays shareable.

No JS? Fill the form by hand. The geolocation button needs JavaScript.